Location: �terpigny
(49.8910°N, 2.9249°E)
Time: 04:15:44
(UTC+00:00)

Cosmos 332 Rocket - Pass Details

Date: 29 May 2022
Orbit: 681 x 703 km, 74.0° (Epoch: 05 July)

Event Time Altitude Azimuth Distance (km) Brightness Sun altitude
Exits shadow 00:49:24 32° 205° (SSW) 1,173 4.4 -17.1°
Maximum altitude 00:51:40 87° 291° (WNW) 690 3.7 -17.0°
Drops below altitude 10° 00:56:29 10° 23° (NNE) 2,135 7.6 -16.8°
Sets 00:58:48 0° 24° (NNE) 3,056 8.9 -16.7°
